Flag for Germany Weather past 2 weeks in Greifswald, Mecklenburg-Western Pomerania, Germany

Now
56 °F

Fog.


Feels Like: 56 °F
Forecast: 56 / 70 °F
Wind: 3 mph from East

Location: Greifswald

Current Time: Sep 16, 2014 at 8:08:50 AM

Latest Report: Sep 16, 2014 at 7:00 AM


Visibility: 3 mi

Pressure: 30.18 "Hg

Humidity: 99%

Dew point: 56 °F

Location of GreifswaldLocation

Historic Weather in Greifswald — Graph

°F

Greifswald temperature yesterday

Maximum temperature yesterday: 69 °F (at 4:00 PM)
Minimum temperature yesterday: 60 °F (at 7:00 AM)
Average temperature yesterday: 64 °F

Past Weeks' High & Low Weather Summary

 TemperatureHumidityPressure
High76 °F (Sep 6, 3:00 PM)100% (Sep 4, 8:00 AM)30.38 "Hg (Sep 4, 8:00 AM)
Low48 °F (Sep 11, 7:00 AM)47% (Sep 6, 2:00 PM)29.91 "Hg (Sep 7, 6:00 AM)
Average61 °F86%30.11 "Hg
* Reported Sep 1 7:00 AM — Sep 16 7:00 AM, Greifswald, Weather by CustomWeather, © 2014

Note: Actual official high and low records may vary slightly from our data, if they occured in-between our weather recording intervals... More about our weather records

Advertising

Greifswald weather history for previous 24 hours

 ConditionsComfort  
Time TempWeatherWind HumidityBarometerVisibility
7:00 AM
Sep 16
56 °FFog.3 mph99%30.18 "Hg3 mi
6:00 AM56 °FFog.2 mph99%30.18 "Hg1 mi
4:00 AM58 °FFog.2 mph97%30.19 "Hg3 mi
3:00 AM59 °FFog.2 mph96%30.19 "Hg4 mi
2:00 AM60 °FClear.3 mph95%30.19 "Hg5 mi
1:00 AM62 °FClear.5 mph93%30.19 "Hg6 mi
12:00 AM62 °FClear.5 mph93%30.19 "Hg6 mi
11:00 PM
Sep 15
62 °FClear.5 mph93%30.19 "Hg6 mi
10:00 PM63 °FClear.6 mph92%30.18 "Hg8 mi
9:00 PM62 °FClear.5 mph92%30.18 "Hg6 mi
8:00 PM63 °FPassing clouds.5 mph92%30.17 "Hg6 mi
7:00 PM65 °FScattered clouds.3 mph87%30.17 "Hg7 mi
6:00 PM67 °FScattered clouds.6 mph82%30.17 "Hg7 mi
5:00 PM68 °FScattered clouds.7 mph82%30.18 "Hg8 mi
4:00 PM69 °FPartly sunny.8 mph79%30.18 "Hg9 mi
3:00 PM68 °FOvercast.7 mph81%30.19 "Hg7 mi
2:00 PM67 °FOvercast.8 mph82%30.20 "Hg6 mi
1:00 PM67 °FPartly sunny.7 mph82%30.20 "Hg6 mi
12:00 PM67 °FPartly sunny.7 mph82%30.20 "Hg6 mi
11:00 AM67 °FPartly sunny.7 mph85%30.20 "Hg6 mi
10:00 AM66 °FScattered clouds.6 mph87%30.19 "Hg6 mi
9:00 AM64 °FFog.3 mph90%30.19 "Hg4 mi
8:00 AM60 °FFog.3 mph98%30.18 "Hg2 mi
Weather by CustomWeather, © 2014

See weather overviewHow to use our weather pages